User: anonymous   Login
Location: Biharia
(46.4333°N, 22.8000°E)
Time: 10:42:05
(UTC+00:00)
Language:

CSL-04 Debris - Orbit

View from above orbital plane
View from above orbital plane
View from above satellite
View from above satellite

Ground track
Ground track

The orbit data is extracted from the following two-line orbital elements,

1 25733U 99025D   22017.67588792  .00000209  00000-0  12706-3 0  9999
2 25733  98.8865  58.0174 0015744 114.0804 246.2019 14.16542750171693
Epoch (UTC): 17 January 2022 16:13:16
Eccentricity: 0.0015744
inclination: 98.8865°
perigee height: 826 km
apogee height: 848 km
right ascension of ascending node: 58.0174°
argument of perigee: 114.0804°
revolutions per day: 14.16542750
mean anomaly at epoch: 246.2019°
orbit number at epoch: 17169

The dashed part of the orbit path shows where the satellite is in the earth's shadow,  

DLR